Torna al catalogo

STARLINK-11684

AttivoComunicazioniVLEO
NORAD 64240·PAYLOAD·🇺🇸 United States

Lanciato Jun 3, 2025 da Cape Canaveral Space Force Station

Loading…

Prossimi Passaggi (prossime 24 ore)

TLE

AggiornatoSource: CelesTrak SupGP

Epoca: Sep 14, 2026, 15:16 UTC

1 64240C 25119H   26257.63659722  .00052735  00000+0  40995-3 0  2574
2 64240  43.0002 150.3347 0001713 263.2236 314.3714 15.70791471    12

Traccia STARLINK-11684 in tempo reale con AllMySat

Download on the App Store